Wind_Speed
18 22 28 26 24 22 20 18 16 15 13 13 15 17 19 18 18 19 19 19 18 18 18 17 17 17 15 14 14 14 14 14 15 15 14 16 16 16 16 16 16 16 15 15 16 18 18 20 22 22 22 23 23 24 23 22 22 22 19 19 19 18 19 19 19 19 19 18 17 17 18 17 16 15 14 14 15 17 18 19 18 17 17 17 16
21 23 27 26 24 22 20 18 16 15 13 14 15 17 19 19 18 18 19 19 19 19 18 18 17 17 15 14 13 13 13 13 13 14 14 14 15 15 15 15 15 16 16 16 17 18 19 21 22 21 22 23 24 24 25 24 22 21 20 21 20 19 19 19 20 20 20 19 18 17 17 17 16 17 16 15 16 17 18 19 19 17 17 16 16
22 24 28 26 24 23 20 19 17 15 14 14 15 16 18 18 18 18 18 19 20 20 19 19 18 17 15 14 13 13 12 12 12 13 13 13 14 15 15 15 15 16 17 16 18 18 19 21 21 21 22 24 25 24 25 25 23 21 21 21 20 19 19 19 20 20 20 19 18 17 16 16 17 18 18 17 17 18 19 19 18 18 17 16 16
23 25 28 26 23 22 20 19 17 16 15 15 16 16 16 17 17 18 18 19 20 20 20 19 18 17 15 14 13 13 12 11 12 12 13 12 12 14 14 15 16 17 17 17 17 16 18 20 20 20 21 24 26 25 24 25 24 23 21 21 20 19 19 19 19 20 21 20 18 17 15 14 17 18 19 19 18 19 19 19 18 18 17 16 15
24 26 28 27 24 22 20 19 18 17 16 16 15 15 15 15 16 16 17 19 20 20 20 19 18 17 15 14 13 13 12 11 12 12 12 13 12 12 14 16 16 17 17 17 16 15 17 18 18 17 18 22 26 25 25 24 24 24 22 21 20 19 19 19 19 20 21 20 18 16 15 14 15 17 18 18 18 18 18 18 17 17 15 14 13
25 29 28 27 25 22 21 20 19 18 17 16 14 14 14 14 14 14 16 18 19 19 20 20 19 17 15 14 13 12 11 11 12 12 12 13 12 11 14 17 17 17 17 16 16 15 16 17 17 17 18 21 24 25 25 24 24 24 23 22 21 20 19 19 19 20 20 19 16 14 13 13 13 14 15 16 16 16 16 15 14 14 13 12 10
24 29 29 26 25 23 21 20 20 18 17 16 14 14 13 13 13 13 14 16 18 19 20 20 18 16 15 13 12 12 11 11 11 11 13 13 12 11 14 17 17 17 17 16 15 15 15 16 17 19 20 22 23 25 26 26 25 24 24 23 22 21 19 19 18 19 19 16 13 12 12 11 10 11 13 14 14 13 13 12 12 12 11 10 8
22 27 27 24 25 24 22 20 20 19 17 16 14 14 13 13 12 12 14 15 17 18 19 19 17 14 13 13 12 12 12 11 10 10 13 14 13 12 13 16 17 17 17 16 15 15 15 16 18 20 21 22 22 24 25 26 26 24 24 24 23 21 20 18 17 17 19 15 13 13 12 9 7 9 12 13 12 12 10 9 9 8 7 7 6
21 24 23 20 25 24 21 21 20 19 18 16 15 14 13 12 12 11 13 15 17 18 18 18 16 14 14 13 13 13 12 11 11 10 11 13 13 12 13 16 16 16 16 16 15 15 15 16 18 20 21 21 22 23 24 25 26 25 24 24 24 23 21 19 16 14 14 14 13 13 12 10 8 8 9 11 10 9 8 6 6 5 5 6 6
21 22 20 19 25 24 21 21 19 19 18 17 15 14 13 12 11 11 12 14 16 17 18 17 15 15 15 14 15 15 14 13 12 11 10 12 13 13 15 16 16 15 15 15 15 15 16 18 20 20 21 21 21 22 23 24 25 25 24 24 24 24 23 21 18 15 12 11 12 14 15 13 10 9 7 8 8 7 5 5 5 5 6 6 5
21 20 19 19 25 24 21 20 19 19 18 17 15 14 13 11 10 10 11 13 15 17 17 17 16 16 16 15 17 17 16 15 12 10 9 10 13 15 17 17 15 16 15 15 15 15 17 19 20 20 20 21 21 21 21 22 23 24 24 24 24 23 24 25 19 15 13 12 12 13 14 12 9 8 7 7 7 6 4 3 5 5 5 5 6
21 19 18 20 24 23 21 20 19 19 18 16 15 14 12 11 10 9 10 12 14 16 17 17 17 16 16 16 18 18 16 15 12 9 9 9 12 15 17 17 16 16 15 14 14 16 18 19 20 20 20 20 20 20 20 21 21 22 23 23 23 23 25 25 18 15 17 16 16 13 11 11 9 9 8 7 7 7 5 4 5 5 5 7 8
20 18 18 22 24 23 21 20 19 19 18 17 15 14 13 11 10 9 10 11 13 16 18 18 17 16 15 16 18 18 15 14 12 10 9 9 10 14 16 16 16 16 15 14 14 16 18 19 20 19 19 19 19 19 18 19 19 21 21 21 22 22 25 25 18 16 18 17 15 11 11 12 11 10 9 8 8 8 7 6 7 7 8 10 10
20 18 19 24 24 22 21 20 19 19 18 17 16 15 13 11 9 8 9 12 15 17 18 18 17 16 14 15 16 16 13 12 12 10 9 9 9 12 15 15 15 15 16 15 14 17 19 19 19 19 18 18 17 17 17 18 18 19 20 20 21 21 24 23 18 17 17 17 14 11 12 14 14 13 11 10 10 9 9 9 9 10 11 11 11
19 19 20 23 23 22 21 20 19 18 18 17 16 14 13 11 9 8 10 13 15 17 18 19 19 18 16 15 14 12 11 12 12 10 9 10 10 11 15 15 14 15 15 14 14 16 18 19 18 18 17 17 16 16 16 17 18 18 19 19 18 20 23 18 14 16 16 16 14 12 12 14 15 15 14 13 12 12 11 11 11 12 12 11 11
18 20 20 21 22 22 20 19 18 18 17 16 15 13 12 10 8 8 10 13 15 18 18 19 19 18 18 16 14 12 12 12 12 11 10 10 9 10 14 15 15 15 15 15 14 15 17 18 18 17 17 16 15 14 15 16 16 17 18 19 17 19 22 17 13 15 16 15 13 12 12 14 16 15 15 14 13 13 12 12 11 11 11 11 11
18 19 20 22 22 22 21 18 18 18 17 15 14 13 11 10 8 9 11 13 15 18 18 19 18 17 17 17 15 14 13 12 13 13 12 11 9 8 12 15 15 14 15 15 14 14 15 16 16 16 16 15 15 13 13 14 15 16 17 18 18 17 20 18 15 14 15 15 12 10 11 13 14 14 14 13 13 12 12 11 11 11 11 11 11
18 19 20 22 21 22 21 19 19 17 16 15 13 13 12 10 9 10 12 13 16 18 18 18 18 17 17 17 16 14 14 14 14 14 13 13 11 10 10 13 14 13 14 16 15 13 13 13 13 14 14 14 13 12 12 12 13 15 16 17 18 16 18 18 14 14 15 14 11 9 10 11 12 13 13 12 12 12 11 11 11 11 10 10 10
18 18 19 21 21 21 21 20 19 17 17 15 15 14 12 11 10 11 13 14 17 18 18 18 17 17 17 16 16 15 15 16 15 14 14 13 12 11 9 11 14 14 14 15 15 13 12 11 10 11 12 12 12 11 10 10 11 13 15 16 16 16 17 15 12 12 13 12 10 10 10 11 11 11 12 11 11 11 11 11 10 11 10 10 10
17 18 19 20 21 20 21 21 20 19 19 17 16 15 14 12 12 13 15 16 17 18 18 17 17 17 17 17 16 16 16 16 16 15 15 13 11 11 10 9 13 15 14 15 15 14 12 10 9 8 9 10 10 10 10 9 9 11 12 13 14 13 12 12 11 11 11 10 10 10 10 10 10 11 10 10 10 10 10 10 10 10 10 10 10
17 18 19 19 21 21 22 22 21 21 20 19 16 16 15 14 14 15 16 17 17 18 18 17 17 17 17 18 18 17 17 17 17 17 16 14 12 11 10 9 11 13 13 14 14 13 12 11 9 7 7 7 8 9 9 8 8 8 9 10 11 9 8 10 11 11 10 8 8 9 9 9 9 10 9 9 8 8 8 8 9 9 9 10 10
17 18 19 19 20 21 23 23 22 21 20 19 17 16 16 15 15 16 16 17 18 18 18 18 18 18 18 18 19 18 17 17 17 17 15 14 11 10 10 8 9 11 13 13 13 13 12 11 9 7 6 5 6 6 7 7 7 7 7 7 8 5 5 9 9 9 9 7 7 8 8 8 8 8 8 8 7 7 7 7 7 7 8 8 8
18 20 20 19 20 22 23 22 21 21 20 19 18 17 16 16 16 17 17 18 20 19 19 20 19 19 20 19 19 18 17 16 16 16 14 13 10 9 9 8 8 10 11 12 12 13 12 11 10 8 6 4 4 4 5 5 6 6 5 5 5 5 5 8 8 7 8 6 7 8 8 7 7 6 7 7 6 7 7 7 7 7 7 7 7
19 20 20 20 21 22 23 21 20 20 19 19 19 18 17 16 16 18 19 19 20 19 19 19 18 20 21 20 19 17 16 15 15 15 13 12 11 10 9 8 8 8 9 10 11 12 12 12 11 10 7 5 4 4 4 5 5 4 3 4 5 5 7 8 6 6 6 5 6 7 8 7 6 5 5 5 5 6 6 6 7 6 6 6 6
19 20 20 20 21 22 22 21 21 20 19 19 19 19 18 17 17 18 19 19 20 19 19 19 19 20 20 20 19 17 15 15 15 14 12 12 12 10 9 9 8 8 8 7 8 9 11 13 12 11 10 6 5 6 5 5 6 5 4 5 4 4 7 7 6 6 6 4 6 7 7 7 7 5 4 4 4 4 5 5 6 6 6 6 6
19 20 21 21 21 22 22 22 22 21 21 19 18 19 18 18 18 18 19 18 18 18 17 18 19 19 19 19 19 18 16 14 14 13 12 12 12 11 9 9 9 9 8 7 6 7 7 9 10 11 10 7 7 8 6 6 7 6 6 6 4 5 7 6 5 6 6 5 7 7 7 7 6 5 4 3 2 3 3 4 4 5 5 6 6
20 21 21 21 21 22 22 23 23 21 20 19 18 19 19 18 18 18 18 16 16 16 14 15 17 17 18 19 18 17 15 13 12 12 13 13 12 12 10 10 9 9 8 8 7 7 7 6 7 8 8 8 8 8 7 6 8 8 8 6 5 6 6 6 5 6 5 4 6 7 7 6 5 5 4 4 2 2 2 2 3 4 4 5 6
19 20 22 22 23 23 23 24 23 22 22 20 18 20 19 17 17 17 16 15 14 13 11 12 15 16 18 18 16 15 14 12 11 12 12 12 12 12 12 12 11 9 9 8 7 7 8 7 7 7 7 7 7 7 7 7 8 8 8 7 6 7 7 6 5 5 4 4 5 6 6 5 4 4 4 5 4 2 3 2 2 3 4 5 6
19 20 22 23 24 25 25 24 24 23 23 20 18 20 19 17 17 17 17 16 14 13 11 10 12 15 16 16 15 14 14 12 11 12 12 11 11 11 11 12 12 10 9 8 7 7 7 7 6 6 6 7 6 7 7 7 8 8 7 7 6 7 6 6 6 6 5 4 3 3 4 4 4 3 3 5 6 4 3 2 2 3 3 4 5
17 18 20 22 24 23 22 22 21 20 20 18 18 20 18 17 17 17 17 16 15 14 12 10 11 13 13 14 14 14 14 12 12 12 11 10 9 9 8 9 11 10 10 9 8 7 7 6 6 6 5 6 6 7 8 7 8 8 7 6 6 6 6 6 7 7 7 6 4 3 3 4 4 3 3 5 6 6 4 4 3 4 4 4 4
16 17 19 21 23 21 20 20 18 18 18 17 18 18 18 17 17 17 17 16 15 14 13 12 13 13 13 14 15 14 13 12 12 12 10 9 8 8 7 7 9 10 9 9 9 8 7 7 7 7 6 7 7 7 8 8 8 8 8 7 7 7 5 6 7 7 7 5 4 4 2 4 5 3 2 3 4 5 5 5 5 5 5 6 6
15 17 18 20 21 18 19 19 17 17 17 15 17 18 18 18 18 18 18 17 16 15 15 15 15 15 14 15 14 14 13 12 12 12 10 9 8 8 7 7 7 9 10 9 8 7 7 7 7 7 7 8 7 7 8 8 8 8 8 8 8 7 6 6 7 6 7 4 2 4 3 3 5 5 5 3 2 3 5 5 6 8 9 10 11
14 13 15 19 19 16 17 17 17 17 16 16 17 18 18 19 18 18 18 16 15 15 15 16 16 15 15 15 14 14 13 12 12 12 11 10 9 8 7 7 8 8 10 10 8 7 7 7 7 7 7 7 8 9 9 8 8 8 8 8 7 7 7 6 6 6 7 5 4 4 4 4 2 3 6 5 1 4 6 7 8 12 14 15 14
17 14 13 16 18 17 19 18 16 18 19 19 18 18 18 19 18 17 16 15 15 15 16 16 16 16 15 15 14 14 14 13 12 11 11 10 10 9 8 8 8 8 8 9 8 7 7 7 7 7 7 7 8 9 8 8 8 8 9 9 7 7 7 7 7 7 7 7 7 6 5 5 4 3 2 5 3 6 9 10 10 13 14 13 11
20 21 19 15 20 21 21 20 19 20 20 20 19 18 18 18 18 17 16 15 15 17 17 16 16 16 16 14 14 14 14 13 13 12 11 11 10 10 9 9 9 8 7 7 7 7 7 7 7 8 9 8 9 9 8 9 10 9 9 9 8 8 8 9 10 8 8 9 8 7 7 6 5 5 3 3 5 6 10 11 9 11 11 9 7
22 23 17 11 18 22 21 20 21 21 20 20 21 19 18 19 18 17 17 15 16 18 18 17 17 16 16 15 15 15 14 14 14 12 11 10 9 9 10 10 9 7 7 7 7 7 7 7 7 8 8 9 10 11 9 10 11 9 8 7 7 7 8 9 9 8 9 9 9 9 9 8 8 8 7 6 6 5 7 9 8 8 8 7 6
23 22 15 12 16 21 21 21 21 21 21 21 22 20 19 19 18 17 16 15 16 18 18 18 17 17 16 16 17 16 15 15 14 13 12 11 10 9 10 10 9 8 6 6 7 7 7 7 8 8 8 8 11 12 11 11 10 8 7 6 6 6 6 6 7 7 8 9 9 10 9 9 9 8 8 8 7 5 5 7 8 7 7 7 6
21 21 20 21 20 22 22 23 22 21 21 23 23 21 19 19 19 17 16 16 17 17 17 17 17 17 16 17 17 16 15 14 14 13 13 12 11 10 9 9 9 8 7 6 7 8 8 8 8 8 8 9 9 11 10 10 10 9 7 6 7 7 6 6 6 6 7 9 10 9 8 9 9 8 8 9 9 7 7 7 7 6 6 6 4
16 19 21 24 25 26 24 25 25 23 23 25 25 22 20 21 20 18 17 17 17 17 17 15 15 16 16 17 16 16 15 13 13 13 12 12 12 11 10 10 10 9 8 7 7 8 9 9 8 8 9 10 10 10 10 10 10 9 8 7 7 7 6 6 6 6 7 8 9 8 7 8 8 7 7 9 9 8 7 7 6 4 4 4 3
17 22 22 24 25 25 26 27 27 25 24 25 26 24 22 21 21 20 19 17 17 18 17 14 13 13 14 16 15 15 14 13 12 12 12 12 12 11 10 10 10 8 8 7 7 8 9 9 8 8 10 11 10 10 10 9 9 9 9 8 7 6 6 5 5 6 7 7 8 8 8 7 7 7 7 9 9 6 6 6 5 3 3 3 3
24 25 24 25 26 26 29 30 28 27 26 26 28 26 22 22 22 20 18 18 17 17 17 15 13 12 14 15 14 13 12 11 11 11 11 11 11 10 10 10 9 8 7 7 7 7 8 9 8 8 9 10 11 11 11 10 9 10 10 9 7 6 5 4 5 6 6 7 8 9 8 7 6 6 6 7 6 5 5 5 4 4 3 3 3
28 28 27 26 26 26 28 29 29 29 28 27 29 26 22 22 21 19 17 17 17 17 17 15 14 14 14 14 13 12 11 11 11 10 10 9 9 9 10 10 9 9 8 8 7 8 9 10 9 9 9 10 11 12 13 11 8 8 9 9 7 6 5 4 5 5 5 6 7 8 8 7 6 6 5 5 4 3 4 4 3 3 3 3 2
29 30 28 24 24 24 24 25 27 27 26 26 27 24 22 22 21 18 17 16 17 17 16 15 15 14 14 13 12 11 10 10 9 9 9 8 9 9 10 10 10 9 9 8 8 9 11 11 10 10 10 10 10 11 13 10 7 8 9 8 8 7 5 5 4 4 5 6 6 7 6 6 7 6 5 5 4 3 3 2 2 2 3 3 3
25 28 28 24 23 24 23 23 23 23 24 26 26 22 22 23 21 19 18 17 17 18 17 16 15 14 14 13 12 11 9 9 8 8 8 8 9 9 10 11 11 10 9 9 9 9 11 13 11 10 10 10 10 11 12 10 8 10 8 6 7 7 5 6 6 5 6 6 6 6 5 5 6 6 5 5 5 4 3 2 2 3 4 4 4
19 21 26 26 24 25 23 22 23 23 25 27 25 23 24 23 22 21 20 19 18 18 18 16 16 15 14 13 11 10 9 9 8 8 8 7 8 9 9 10 10 10 10 9 10 10 12 13 12 11 11 10 10 11 12 11 9 10 9 6 6 5 5 9 8 5 6 5 5 5 6 6 5 5 5 5 5 4 3 2 3 5 6 6 6
17 15 22 25 23 24 22 22 23 23 27 28 25 24 25 23 23 23 21 20 19 18 17 16 16 15 13 12 11 10 10 9 8 8 7 7 7 8 8 8 8 9 9 9 10 10 11 12 12 11 10 9 9 9 11 11 9 9 9 7 5 5 7 11 10 8 8 6 6 6 6 6 7 6 6 6 6 4 4 4 4 6 7 8 7
17 14 19 21 21 23 23 24 24 22 25 28 26 25 25 24 24 22 20 20 18 18 17 15 15 14 13 13 11 10 10 9 9 8 7 7 7 7 8 8 8 8 9 9 9 9 9 10 12 12 10 9 9 7 8 9 9 9 9 7 5 5 8 10 10 9 9 7 7 7 7 7 7 6 6 6 6 5 7 8 6 6 7 7 8
18 16 18 18 19 23 25 26 24 22 25 28 27 26 26 25 23 21 20 20 19 17 16 15 15 14 14 13 11 11 10 10 10 9 9 9 9 8 8 8 8 8 8 8 8 9 9 10 12 13 12 11 9 8 8 9 9 8 9 8 4 4 7 7 7 8 8 9 9 8 8 8 7 6 6 6 6 7 10 11 9 9 8 8 8
19 17 19 19 18 22 25 25 23 22 25 29 28 26 26 25 23 22 20 20 18 16 16 16 16 15 14 13 12 12 12 11 10 10 9 9 9 9 8 8 8 8 8 8 8 9 10 11 12 13 13 12 10 9 8 9 9 8 8 8 6 6 8 7 7 8 8 9 9 10 10 9 7 7 8 8 7 8 11 12 11 11 10 10 9
19 18 19 20 20 21 23 23 23 22 25 28 28 26 25 25 24 23 20 19 19 18 17 17 16 15 15 14 13 12 12 10 8 8 8 8 8 9 8 9 8 8 8 8 8 9 10 11 12 11 12 13 10 9 9 9 9 8 7 8 9 9 8 8 9 9 8 8 9 10 11 10 8 7 7 7 8 10 12 12 12 11 10 9 8
19 18 19 20 20 21 22 22 22 23 25 29 29 26 25 25 25 23 19 18 19 19 19 20 19 18 17 16 14 13 11 10 9 9 8 8 9 9 9 9 9 9 9 8 8 9 10 11 12 12 12 11 10 9 9 9 10 9 8 9 10 10 9 9 10 10 9 10 11 12 11 10 9 7 7 9 10 11 11 11 11 10 9 8 7
Wind_Direction
162 171 173 169 170 168 167 166 164 162 164 165 165 167 164 161 161 162 162 162 164 161 157 157 157 157 155 150 141 135 131 131 136 140 139 135 138 139 138 135 128 124 124 123 120 118 113 109 106 100 96 93 90 89 91 96 102 109 110 109 109 107 105 105 106 108 108 108 108 102 95 95 95 96 96 97 104 109 109 105 100 99 98 98 98
159 170 169 168 170 166 167 165 163 161 161 162 161 163 164 163 162 162 163 164 165 163 161 161 162 161 159 154 145 139 138 134 133 135 134 134 138 134 132 132 128 126 125 123 119 116 110 111 110 102 97 94 92 90 91 95 100 105 105 108 112 111 108 107 108 110 109 109 107 104 100 97 93 94 95 100 108 108 106 104 102 102 101 100 97
157 169 167 167 168 165 166 164 161 158 158 156 154 158 163 164 163 165 165 167 167 166 164 165 166 166 163 157 149 145 144 137 132 130 131 132 136 135 136 135 131 128 123 121 118 115 112 114 112 103 99 96 92 91 92 94 96 99 101 105 110 112 112 110 111 111 110 108 106 105 102 95 91 93 97 103 105 103 103 103 102 101 99 97 94
156 166 166 166 166 165 165 163 159 155 155 150 148 150 157 162 165 169 169 171 170 169 168 169 171 170 168 160 154 151 148 140 131 129 132 132 135 140 140 135 131 127 123 122 120 117 114 115 114 104 99 95 92 90 90 93 95 97 100 104 107 112 114 114 113 112 112 110 105 103 100 93 90 94 99 102 100 98 100 101 100 98 97 95 93
157 165 165 164 165 165 164 162 158 154 153 147 146 144 149 155 163 171 173 175 174 173 172 172 173 172 169 163 158 154 151 141 133 133 135 132 132 140 138 133 131 128 127 127 124 119 115 118 117 107 103 98 92 90 89 90 92 94 98 102 106 111 116 118 115 115 112 103 96 97 100 97 93 96 99 100 100 99 100 100 100 98 96 95 93
158 166 163 161 163 164 165 162 158 155 152 148 146 142 142 145 154 165 171 176 177 176 174 174 173 173 171 166 161 156 153 142 138 138 137 135 132 136 139 135 134 133 131 128 124 120 117 118 115 108 104 99 94 93 91 89 89 90 94 98 104 109 115 118 119 119 105 89 88 92 95 98 100 101 103 102 102 103 105 103 101 102 100 99 96
156 163 161 161 163 163 165 162 159 156 153 151 147 142 139 140 145 154 164 173 178 179 177 176 174 173 171 167 162 154 148 140 141 141 138 137 134 136 142 140 137 135 129 125 123 120 115 115 114 108 103 99 96 95 93 91 89 88 90 93 99 108 115 117 122 118 100 87 90 93 88 96 106 111 120 117 108 109 111 105 104 107 107 107 104
153 159 158 160 163 163 164 162 160 157 156 154 149 144 141 140 142 147 156 167 175 180 179 176 174 171 167 163 158 152 146 138 140 146 143 141 144 148 148 140 134 132 130 129 127 123 116 115 115 109 106 102 98 95 94 92 90 89 89 90 93 102 112 118 124 113 101 103 103 99 95 102 110 111 132 136 126 122 120 109 108 111 103 99 93
153 156 155 159 163 163 162 163 162 160 160 158 153 148 144 143 144 147 153 164 174 178 178 176 172 166 161 159 156 155 150 140 142 151 150 149 156 156 149 140 133 134 135 135 131 125 120 117 115 110 108 105 101 98 95 93 91 90 89 90 90 93 102 114 120 104 97 107 105 106 105 103 105 109 139 149 142 137 127 112 110 105 81 70 66
154 156 156 160 162 162 162 164 165 164 164 162 159 153 149 147 148 150 154 165 174 177 178 176 172 165 162 165 162 159 152 144 145 149 152 157 160 152 146 142 139 143 141 138 135 127 123 120 116 113 110 106 103 99 97 95 93 92 90 90 90 91 96 99 100 97 100 109 113 127 126 117 113 113 134 146 147 144 124 98 88 82 71 67 67
155 156 159 161 162 162 164 166 168 168 167 167 163 159 155 153 153 154 156 163 175 179 178 174 170 167 169 171 164 157 151 145 146 146 146 155 160 153 147 147 149 151 146 142 141 131 126 123 118 116 112 108 104 100 98 96 95 94 92 91 91 92 94 91 89 94 101 103 100 106 115 119 124 118 122 133 139 137 125 97 84 80 75 76 80
155 157 161 161 162 165 166 168 171 172 171 170 167 165 162 159 158 156 158 161 171 178 175 169 167 168 169 169 161 154 149 145 144 146 142 146 159 158 153 155 156 150 145 146 145 134 128 125 121 118 114 109 106 102 99 96 95 95 94 93 93 93 92 90 92 96 96 95 90 91 99 108 117 117 120 125 127 131 134 115 95 97 95 91 91
157 158 165 162 164 167 169 171 173 176 174 173 172 171 167 166 163 154 159 157 160 169 169 164 164 166 164 166 161 151 148 145 144 147 147 148 154 161 160 158 154 148 148 152 150 137 130 128 125 122 116 111 107 104 102 98 96 95 95 94 94 94 93 94 96 96 97 96 97 106 107 99 102 110 118 120 121 127 129 119 107 110 105 101 100
158 161 167 165 167 168 171 174 175 178 177 178 177 175 172 169 166 154 156 155 154 158 160 160 162 164 162 164 158 149 149 144 145 151 157 162 157 160 161 155 153 156 157 158 156 141 132 131 128 125 120 115 110 108 106 102 99 96 96 95 95 96 93 92 94 95 96 98 98 100 99 97 97 101 103 105 111 114 113 109 103 104 105 107 107
161 165 168 167 169 168 173 176 176 179 178 181 178 175 174 171 166 155 154 155 153 154 157 160 162 163 163 165 160 156 152 145 150 157 168 176 168 163 160 157 160 163 163 163 161 146 136 134 133 130 124 120 117 113 110 107 103 99 98 96 96 99 94 90 96 98 96 94 96 94 94 96 96 95 92 91 95 98 100 101 100 102 106 108 105
164 166 167 170 171 168 172 175 178 180 179 179 177 177 175 173 164 153 155 155 153 155 160 164 164 164 164 165 164 162 154 151 157 165 179 182 173 168 164 164 166 168 167 165 164 152 141 140 139 135 129 125 122 117 114 111 106 103 101 98 96 98 99 102 103 98 97 94 91 91 93 94 94 95 94 93 92 93 95 97 98 99 100 100 99
165 166 169 172 173 171 170 173 178 179 178 177 176 177 174 171 162 154 157 157 155 156 163 167 166 165 164 164 165 164 161 162 164 171 180 173 166 164 167 174 173 173 171 166 167 158 148 146 143 138 133 128 126 122 118 113 110 105 102 100 96 96 102 106 104 102 103 99 96 97 97 95 96 97 98 97 96 95 94 95 93 89 89 91 93
164 166 171 173 175 174 171 173 176 174 174 176 177 176 173 167 160 159 159 158 157 158 165 168 166 163 161 162 165 167 166 164 164 169 169 163 165 160 167 183 178 175 176 171 171 166 158 154 147 142 136 130 128 125 120 115 112 107 104 101 98 100 103 100 102 110 104 99 107 113 106 100 100 101 101 99 98 98 96 94 91 87 86 85 85
165 169 172 175 174 173 175 176 176 176 174 174 175 173 170 165 160 161 161 160 158 161 168 168 166 162 158 161 164 164 160 158 157 159 159 159 165 164 173 192 187 181 181 179 177 174 169 164 157 149 140 134 128 124 123 117 112 109 105 103 103 101 96 93 97 106 104 106 116 114 108 104 103 102 101 101 101 100 100 97 94 92 90 86 83
169 173 174 177 175 174 178 178 178 181 177 175 175 169 165 162 161 163 162 161 161 165 169 168 166 161 159 161 158 156 155 155 154 153 153 155 161 168 179 198 198 189 185 187 185 181 177 175 174 162 147 138 130 125 123 119 116 111 108 110 105 93 90 99 102 103 107 116 123 118 114 109 104 103 101 102 102 102 103 104 102 100 98 96 90
173 175 177 179 177 177 178 180 180 180 179 178 175 168 162 158 160 164 164 164 165 168 170 167 166 162 162 161 157 158 158 157 154 151 150 152 159 171 182 198 204 194 189 194 193 187 185 187 187 177 156 140 133 127 122 123 123 116 116 111 93 83 96 98 91 90 91 103 126 128 120 113 106 105 105 102 100 101 101 103 105 104 104 103 99
175 176 179 179 179 180 181 184 183 181 183 181 177 170 162 161 164 164 164 169 171 172 172 168 167 166 164 164 163 162 161 159 155 151 151 151 157 172 183 192 199 198 201 206 205 199 196 197 199 194 174 151 137 125 123 130 132 130 125 103 86 96 107 90 83 83 84 93 120 125 118 112 109 106 105 101 98 98 96 95 96 97 96 97 98
178 178 179 181 181 183 185 188 187 182 182 182 181 177 167 166 168 167 169 176 175 175 176 170 170 170 168 169 166 164 161 159 154 152 152 150 153 162 168 177 185 192 202 209 212 211 210 209 211 210 196 173 156 134 133 141 142 149 131 104 111 127 105 91 92 88 88 94 102 113 116 110 108 104 103 102 98 95 94 92 88 89 89 90 92
180 179 180 181 182 186 185 187 189 183 181 182 181 178 171 168 173 177 177 179 178 178 180 171 171 175 170 169 167 164 159 155 153 149 147 146 150 155 155 165 174 181 191 201 212 216 217 218 218 220 215 196 185 168 157 160 160 170 144 125 139 129 105 100 103 101 103 102 95 105 113 111 110 104 105 106 101 97 91 89 87 85 88 89 89
181 182 182 181 183 188 185 185 188 183 181 179 175 176 173 171 180 184 180 181 180 182 183 172 176 182 171 167 166 162 158 157 153 144 142 145 149 151 154 162 167 172 173 179 203 212 217 223 221 224 225 204 198 202 186 179 178 185 167 149 149 122 112 113 116 115 114 100 87 96 102 103 104 100 106 111 106 103 94 91 91 87 86 86 86
183 184 184 181 183 188 187 186 186 182 184 178 172 175 174 177 184 183 180 183 181 184 187 177 180 183 170 167 168 163 159 157 147 140 143 147 150 152 159 166 167 170 167 166 186 197 206 223 224 226 225 202 202 218 212 196 188 185 173 162 154 130 118 118 114 112 115 89 78 90 96 95 90 80 84 101 115 118 106 99 96 91 86 83 82
185 187 183 181 184 186 187 188 185 181 182 176 170 175 176 182 187 181 178 181 181 184 188 181 179 179 172 171 168 160 155 149 144 148 149 150 156 158 162 167 168 170 171 172 179 181 175 186 202 206 205 194 204 218 216 205 193 184 176 168 154 139 127 122 110 108 111 75 63 75 88 99 94 78 65 64 90 139 129 119 105 92 83 79 76
188 188 183 181 184 185 187 189 186 179 175 172 171 177 179 181 186 182 176 179 180 181 185 180 174 174 173 170 163 154 150 148 151 157 155 156 161 160 162 165 167 169 172 173 175 179 174 170 172 175 180 185 201 203 195 200 194 183 176 172 162 149 138 131 119 117 118 80 62 53 71 97 94 84 59 47 64 120 146 144 110 87 77 73 73
192 189 183 183 185 186 189 187 184 180 174 172 174 179 179 179 184 182 177 179 179 177 179 171 167 169 165 162 158 154 154 155 158 161 160 162 160 155 160 161 160 162 167 169 176 183 179 170 156 156 167 169 183 184 181 192 187 177 172 174 169 150 139 134 125 126 129 118 101 51 60 94 95 88 57 50 60 75 110 134 119 100 85 76 77
195 190 186 187 187 186 184 180 179 176 172 173 177 179 179 178 180 181 180 179 177 179 178 167 162 162 157 160 161 157 159 160 163 165 164 164 153 149 157 156 152 154 161 166 174 177 172 163 144 142 155 159 170 172 174 181 176 172 171 173 170 153 145 140 134 134 130 133 137 98 59 71 84 82 54 50 52 57 82 105 117 116 105 94 89
200 193 191 189 188 182 174 175 177 175 176 179 181 180 178 179 178 179 183 179 178 182 181 173 168 166 163 162 160 159 163 166 169 169 165 163 153 153 160 157 154 155 161 164 165 164 161 158 147 145 152 159 166 164 166 170 170 174 172 174 176 164 158 147 143 140 134 149 156 123 84 51 52 34 21 30 42 57 70 90 113 120 115 104 94
207 195 194 190 185 176 169 175 180 182 182 181 183 182 180 183 181 181 184 181 179 183 182 178 174 173 169 164 163 165 168 173 176 171 165 164 162 164 167 168 171 169 167 165 162 161 160 160 156 155 156 156 161 160 159 161 165 172 173 178 183 174 170 160 151 145 141 163 183 151 161 92 47 13 9 7 55 77 59 80 112 116 111 103 96
221 201 196 191 183 177 179 182 182 184 183 181 184 183 181 183 182 184 184 181 182 182 181 177 174 175 171 168 172 175 176 180 181 175 171 170 172 172 172 180 187 182 172 163 160 162 165 168 167 166 163 154 158 159 152 155 162 168 177 179 179 180 180 166 155 152 147 156 178 172 155 131 101 29 20 15 76 113 81 90 114 115 109 103 98
236 229 219 197 185 187 187 185 184 186 185 185 183 181 185 185 183 186 184 183 184 181 181 177 174 174 173 173 178 183 184 185 184 181 177 177 181 179 178 188 192 186 170 156 155 161 169 173 174 178 175 156 154 158 151 155 160 166 180 179 177 184 178 170 165 160 159 163 170 166 148 146 147 124 44 27 67 115 103 101 114 118 111 102 94
228 231 236 206 185 189 185 184 186 189 188 187 184 182 188 187 185 188 186 186 184 181 181 176 174 175 177 179 180 184 187 188 187 184 183 184 187 185 184 192 194 186 171 161 162 169 176 175 176 184 183 168 156 157 159 169 173 174 179 179 184 186 177 180 175 166 174 174 166 160 153 157 153 146 150 87 87 120 115 109 114 115 109 102 97
212 218 229 196 184 189 187 192 189 187 189 189 188 184 187 188 189 192 188 186 183 181 181 175 176 179 180 183 182 182 185 189 189 187 189 187 184 186 190 196 195 190 188 182 177 181 188 187 186 188 188 183 175 171 172 178 180 175 172 177 186 187 183 181 171 167 182 178 169 171 165 164 167 164 164 140 122 142 134 127 129 121 114 116 120
211 208 189 165 194 199 196 205 197 191 191 190 189 184 186 192 193 194 190 185 182 181 182 179 179 180 179 183 182 181 183 188 190 190 193 190 189 193 198 200 196 196 199 190 184 189 195 197 195 191 185 185 185 183 178 178 180 174 171 173 170 174 177 166 161 174 186 182 181 183 179 179 180 174 168 155 142 147 148 143 141 136 134 134 134
214 204 171 160 193 207 203 206 200 195 195 193 191 183 186 194 195 196 191 185 181 179 181 182 182 182 180 181 182 183 185 189 192 194 197 197 201 204 206 204 201 203 198 191 195 195 195 200 202 197 186 178 179 182 178 179 182 174 165 159 151 155 161 161 169 181 185 187 190 187 184 188 186 178 165 154 151 151 149 147 143 139 141 139 134
207 191 167 161 186 206 206 203 200 196 195 194 190 184 187 193 194 194 191 185 181 181 181 180 182 184 185 186 187 190 192 194 195 197 199 201 206 209 210 206 204 205 196 195 204 202 200 201 204 199 188 181 179 180 178 178 178 165 152 148 148 154 162 175 177 178 189 192 194 191 190 193 184 181 166 148 152 158 153 149 143 136 134 126 117
189 175 166 164 183 202 204 204 204 201 197 193 189 186 188 193 193 190 189 185 182 185 184 180 182 185 189 192 193 195 197 200 200 199 202 206 209 210 210 205 201 201 196 197 203 206 204 200 204 201 191 187 182 178 171 165 161 152 149 148 148 155 163 177 174 175 194 196 197 195 193 193 178 175 168 146 146 156 154 145 132 120 101 86 72
184 179 179 176 183 195 200 202 204 203 199 194 191 187 186 192 192 188 186 184 183 187 187 184 183 185 190 193 195 196 200 205 204 203 207 211 210 206 209 206 197 194 196 195 198 204 199 194 200 199 192 188 179 171 161 154 154 148 147 145 140 145 149 157 165 175 191 192 193 194 189 189 175 169 164 139 132 138 139 131 120 112 91 68 33
182 184 190 191 191 193 197 200 200 201 199 195 193 188 187 191 190 187 185 183 185 187 188 188 188 190 193 192 194 197 203 210 208 207 207 207 206 202 209 207 192 189 193 189 195 202 197 192 195 194 189 183 178 173 162 156 165 157 145 143 138 136 139 146 153 160 175 178 185 193 190 186 181 180 165 135 125 129 125 118 119 116 99 91 69
192 194 193 193 195 194 195 197 196 196 194 195 195 189 188 188 186 185 183 182 187 187 187 192 194 195 194 192 195 199 205 209 208 206 203 204 204 200 207 205 189 187 189 186 195 201 199 196 193 192 189 180 175 175 167 162 174 167 155 160 156 144 143 151 156 162 169 176 185 192 194 193 195 191 165 138 137 143 128 109 115 120 107 109 106
201 206 200 193 193 194 195 195 194 193 193 196 195 191 189 186 184 184 183 184 189 191 191 195 196 194 193 194 198 202 203 203 201 201 200 204 201 197 202 199 189 187 186 187 195 201 202 198 191 191 191 182 174 177 176 170 171 167 167 177 166 164 171 160 161 165 163 177 191 194 203 203 204 197 170 153 154 158 152 140 136 125 110 109 109
196 204 204 198 195 193 194 196 196 194 197 198 194 191 189 186 186 185 184 187 190 193 194 193 192 190 192 196 198 198 194 194 197 195 196 199 194 190 192 191 188 186 187 191 195 201 202 196 193 192 191 187 182 187 186 176 171 172 177 177 166 182 192 166 159 151 145 156 173 189 212 209 201 200 186 177 180 179 176 165 140 131 125 118 112
198 195 201 202 199 193 192 199 200 197 201 199 193 192 191 187 188 187 186 188 189 190 191 189 189 189 190 192 190 187 187 190 192 190 191 191 186 183 181 184 186 185 191 195 195 200 197 195 198 193 188 190 190 197 194 180 178 186 191 187 178 189 184 173 169 154 142 147 162 177 200 205 198 203 210 205 200 195 162 140 129 134 136 129 122
199 191 196 202 199 193 195 203 201 197 200 199 192 193 194 191 191 189 187 188 186 186 188 184 184 186 186 183 180 180 184 186 185 186 188 187 183 182 179 179 183 187 193 192 191 193 189 195 202 190 184 191 189 195 200 190 189 200 203 198 199 198 184 183 176 159 152 156 169 173 171 181 187 199 218 203 176 160 145 139 137 135 129 125 125
200 195 196 197 191 191 197 202 200 196 199 198 192 193 195 194 191 189 188 189 186 184 183 179 179 181 179 176 174 176 179 182 186 187 188 190 182 177 178 177 182 187 187 185 186 187 185 194 201 193 186 188 187 189 198 197 195 209 211 197 195 190 182 189 183 170 169 162 167 177 170 169 179 183 175 153 143 149 150 146 143 142 133 125 124
204 200 200 199 192 193 196 197 198 197 198 196 191 192 194 192 189 188 189 190 187 183 180 177 176 175 172 171 170 173 180 183 186 186 187 192 182 173 177 178 182 183 179 182 186 188 190 195 198 198 192 187 186 187 195 201 199 208 211 194 184 181 180 192 189 179 176 164 163 177 176 166 171 170 149 140 146 152 153 150 144 145 143 135 130
204 200 204 204 198 195 193 194 199 198 196 194 191 191 192 190 187 187 188 187 183 180 177 174 174 171 169 169 168 173 183 184 180 180 181 183 179 175 178 181 184 181 175 180 189 192 196 198 197 201 199 191 188 189 192 199 199 203 205 197 196 195 192 194 189 182 177 168 160 168 172 162 154 150 137 141 148 145 150 151 144 145 146 140 136
203 203 208 207 201 197 192 193 198 195 193 193 192 192 191 189 187 186 186 183 179 177 175 174 172 169 166 167 168 171 179 182 181 185 183 181 182 179 178 183 183 178 175 177 187 193 197 200 199 202 202 193 191 194 193 196 198 201 203 204 206 207 210 201 186 185 184 171 158 158 162 155 146 147 148 148 144 143 147 148 146 150 148 142 138
Height
1509 1511 1511 1514 1516 1518 1521 1522 1525 1526 1527 1528 1529 1530 1531 1532 1534 1535 1536 1538 1538 1539 1540 1541 1542 1542 1543 1543 1544 1544 1545 1546 1546 1547 1547 1547 1548 1548 1549 1549 1549 1549 1549 1550 1550 1550 1550 1550 1551 1551 1550 1550 1549 1549 1548 1548 1547 1547 1547 1546 1546 1546 1547 1547 1547 1548 1549 1549 1550 1550 1551 1551 1551 1551 1551 1551 1551 1551 1551 1551 1551 1551 1552 1552 1552
1509 1510 1511 1514 1516 1518 1521 1523 1525 1526 1527 1528 1529 1530 1531 1533 1534 1535 1537 1538 1539 1540 1540 1542 1542 1543 1544 1544 1545 1545 1546 1547 1547 1547 1548 1548 1549 1549 1549 1550 1550 1550 1550 1551 1551 1551 1551 1552 1552 1552 1552 1551 1551 1550 1550 1549 1548 1548 1548 1548 1548 1548 1548 1548 1549 1549 1550 1551 1551 1552 1552 1552 1552 1552 1552 1553 1553 1553 1553 1553 1553 1552 1553 1553 1553
1509 1510 1512 1515 1517 1519 1521 1523 1525 1526 1528 1529 1530 1531 1532 1533 1534 1536 1537 1538 1539 1540 1541 1542 1543 1544 1545 1545 1546 1546 1547 1547 1548 1548 1549 1549 1550 1550 1550 1551 1551 1551 1551 1552 1552 1552 1552 1553 1553 1553 1553 1553 1552 1552 1551 1550 1550 1549 1549 1549 1549 1549 1550 1550 1550 1551 1551 1552 1553 1554 1554 1554 1554 1554 1554 1554 1555 1555 1555 1555 1554 1554 1554 1554 1555
1509 1511 1513 1515 1517 1520 1521 1523 1525 1527 1528 1529 1530 1531 1532 1533 1534 1536 1537 1538 1539 1540 1541 1542 1544 1544 1545 1546 1547 1547 1548 1548 1549 1549 1550 1550 1550 1551 1551 1551 1551 1552 1552 1553 1553 1553 1553 1554 1554 1554 1555 1554 1553 1553 1553 1552 1551 1551 1551 1551 1551 1551 1551 1552 1552 1552 1553 1553 1554 1555 1556 1556 1556 1556 1556 1556 1556 1556 1556 1556 1556 1556 1555 1556 1556
1509 1511 1514 1515 1518 1520 1522 1524 1525 1527 1528 1530 1531 1532 1533 1534 1535 1536 1537 1538 1539 1541 1542 1543 1544 1545 1546 1547 1547 1548 1548 1549 1550 1550 1550 1551 1551 1551 1552 1552 1552 1553 1553 1554 1554 1554 1554 1555 1555 1555 1556 1555 1555 1554 1554 1554 1553 1552 1552 1552 1552 1553 1553 1554 1554 1554 1555 1555 1556 1557 1558 1558 1558 1558 1557 1557 1558 1558 1557 1557 1558 1557 1556 1556 1557
1509 1512 1514 1516 1518 1520 1522 1524 1526 1527 1528 1530 1531 1532 1533 1534 1535 1536 1537 1539 1540 1541 1542 1543 1544 1545 1546 1547 1548 1548 1549 1550 1550 1550 1551 1551 1552 1552 1552 1553 1554 1554 1554 1555 1555 1555 1555 1556 1556 1556 1557 1556 1556 1556 1556 1555 1555 1554 1553 1553 1554 1554 1554 1555 1555 1556 1556 1557 1559 1560 1560 1560 1560 1559 1559 1559 1558 1558 1558 1558 1558 1558 1558 1558 1558
1510 1512 1514 1516 1518 1520 1523 1524 1526 1528 1529 1530 1531 1533 1534 1535 1536 1537 1538 1539 1540 1541 1542 1543 1544 1546 1547 1548 1548 1549 1550 1550 1551 1551 1551 1552 1552 1553 1553 1554 1554 1555 1555 1556 1556 1556 1556 1557 1557 1557 1558 1557 1557 1557 1557 1557 1556 1556 1555 1555 1555 1555 1556 1556 1557 1557 1558 1560 1562 1563 1563 1562 1561 1560 1560 1560 1559 1559 1559 1559 1559 1559 1559 1559 1559
1512 1513 1515 1517 1519 1521 1523 1525 1527 1528 1530 1531 1532 1533 1534 1535 1536 1537 1538 1539 1541 1542 1542 1544 1545 1546 1547 1548 1549 1550 1550 1551 1551 1551 1552 1552 1553 1553 1554 1555 1555 1556 1556 1557 1557 1557 1558 1558 1559 1559 1559 1559 1558 1558 1558 1558 1558 1558 1557 1557 1557 1556 1557 1557 1558 1558 1559 1562 1564 1564 1565 1564 1563 1562 1561 1560 1560 1560 1560 1560 1560 1560 1560 1560 1560
1513 1515 1517 1518 1519 1521 1523 1526 1527 1529 1530 1531 1532 1533 1535 1536 1537 1537 1538 1540 1541 1542 1543 1544 1545 1547 1548 1548 1549 1550 1551 1551 1552 1552 1552 1553 1554 1554 1555 1556 1556 1557 1557 1558 1558 1559 1559 1559 1560 1560 1560 1560 1560 1560 1559 1559 1559 1559 1559 1559 1558 1558 1558 1559 1559 1560 1561 1562 1564 1565 1566 1566 1565 1564 1562 1561 1561 1561 1561 1561 1561 1561 1561 1561 1560
1514 1516 1518 1519 1520 1522 1524 1526 1528 1529 1530 1532 1533 1534 1535 1536 1537 1538 1539 1540 1541 1542 1543 1544 1546 1547 1548 1548 1549 1550 1551 1552 1552 1552 1553 1554 1554 1555 1556 1557 1558 1558 1558 1559 1559 1560 1560 1560 1561 1561 1561 1561 1561 1561 1561 1561 1560 1561 1561 1560 1560 1560 1560 1560 1560 1561 1563 1563 1563 1564 1564 1565 1565 1564 1562 1562 1562 1562 1562 1562 1562 1561 1561 1561 1561
1515 1517 1519 1520 1521 1523 1525 1527 1528 1529 1531 1532 1533 1534 1535 1536 1537 1538 1539 1540 1541 1542 1544 1545 1546 1547 1548 1548 1549 1550 1551 1552 1553 1553 1554 1555 1555 1556 1556 1558 1558 1559 1559 1560 1560 1560 1561 1561 1562 1562 1562 1562 1563 1562 1563 1562 1562 1562 1562 1562 1562 1562 1561 1561 1562 1564 1564 1564 1564 1564 1564 1564 1564 1563 1563 1563 1563 1563 1563 1563 1563 1563 1562 1562 1562
1516 1518 1519 1520 1522 1524 1526 1528 1529 1530 1531 1532 1533 1535 1535 1536 1537 1539 1540 1541 1541 1543 1544 1545 1546 1547 1548 1549 1549 1550 1552 1553 1553 1554 1554 1555 1556 1556 1557 1558 1559 1559 1560 1560 1561 1561 1562 1562 1563 1563 1563 1564 1564 1564 1564 1564 1564 1563 1563 1563 1563 1563 1562 1562 1564 1566 1565 1565 1566 1567 1566 1565 1564 1564 1564 1564 1564 1564 1564 1564 1564 1563 1563 1563 1563
1516 1518 1519 1520 1522 1524 1527 1528 1530 1531 1532 1533 1534 1535 1536 1537 1538 1539 1540 1541 1542 1543 1545 1546 1547 1548 1549 1549 1550 1551 1552 1553 1554 1554 1555 1556 1557 1557 1558 1558 1559 1560 1561 1561 1561 1562 1563 1563 1564 1564 1564 1565 1565 1565 1565 1565 1566 1565 1565 1565 1564 1564 1564 1564 1566 1567 1566 1567 1567 1568 1567 1565 1565 1565 1565 1565 1565 1565 1564 1564 1564 1564 1564 1564 1564
1517 1518 1519 1521 1523 1525 1527 1529 1530 1532 1533 1534 1535 1536 1537 1538 1539 1540 1541 1542 1543 1544 1545 1547 1548 1549 1550 1551 1551 1552 1553 1554 1554 1555 1555 1557 1557 1557 1558 1559 1560 1561 1561 1561 1562 1563 1564 1564 1565 1565 1565 1565 1566 1566 1566 1567 1567 1567 1566 1566 1566 1566 1565 1566 1568 1568 1567 1568 1568 1568 1567 1566 1566 1566 1566 1566 1566 1566 1565 1565 1565 1565 1565 1565 1565
1517 1518 1520 1521 1523 1526 1528 1529 1531 1532 1533 1534 1535 1537 1538 1539 1540 1540 1542 1543 1544 1545 1546 1547 1548 1549 1550 1551 1552 1553 1554 1554 1555 1555 1556 1557 1558 1558 1559 1559 1560 1561 1561 1562 1562 1563 1564 1565 1566 1566 1566 1566 1567 1567 1567 1568 1568 1568 1568 1567 1568 1567 1566 1568 1570 1569 1569 1569 1569 1569 1568 1567 1567 1567 1567 1567 1567 1567 1567 1567 1566 1566 1566 1566 1566
1518 1519 1520 1523 1524 1526 1528 1530 1531 1532 1534 1535 1536 1537 1538 1539 1540 1541 1542 1543 1544 1546 1547 1548 1549 1550 1551 1552 1552 1553 1554 1555 1555 1556 1556 1557 1558 1558 1559 1560 1561 1561 1562 1562 1562 1564 1565 1566 1566 1566 1567 1567 1568 1568 1568 1569 1569 1569 1569 1568 1569 1568 1567 1569 1571 1570 1570 1570 1571 1570 1569 1569 1568 1568 1568 1568 1568 1568 1568 1568 1568 1568 1568 1568 1568
1518 1520 1521 1523 1525 1526 1528 1530 1531 1533 1534 1535 1537 1538 1539 1540 1541 1541 1542 1544 1545 1546 1547 1548 1549 1550 1551 1552 1553 1554 1554 1555 1556 1556 1557 1557 1558 1559 1560 1560 1561 1562 1562 1562 1563 1564 1565 1566 1567 1567 1568 1568 1568 1569 1569 1570 1570 1570 1570 1569 1569 1569 1568 1569 1571 1571 1571 1571 1572 1571 1570 1570 1569 1569 1569 1569 1570 1570 1570 1569 1570 1569 1569 1569 1569
1518 1520 1522 1523 1525 1526 1528 1530 1531 1533 1534 1536 1537 1538 1539 1540 1541 1542 1543 1544 1545 1546 1547 1548 1550 1551 1552 1552 1553 1554 1555 1555 1556 1556 1557 1558 1559 1559 1560 1561 1561 1562 1562 1563 1564 1564 1565 1566 1567 1568 1569 1569 1569 1570 1571 1571 1571 1571 1571 1571 1571 1571 1570 1570 1572 1572 1571 1572 1572 1572 1571 1571 1570 1570 1570 1570 1570 1570 1570 1570 1570 1571 1571 1571 1571
1519 1521 1522 1523 1525 1526 1528 1529 1531 1533 1534 1535 1537 1538 1539 1540 1541 1542 1543 1544 1545 1546 1547 1549 1550 1551 1552 1553 1553 1554 1554 1555 1555 1557 1557 1559 1559 1560 1560 1561 1562 1562 1563 1563 1564 1565 1565 1566 1567 1569 1569 1570 1570 1571 1572 1572 1572 1572 1572 1572 1572 1572 1571 1572 1573 1573 1573 1573 1572 1572 1571 1571 1571 1571 1571 1571 1571 1571 1571 1571 1571 1571 1571 1571 1572
1519 1521 1522 1523 1524 1526 1527 1529 1530 1532 1533 1535 1536 1537 1539 1540 1541 1542 1543 1544 1546 1547 1547 1549 1550 1551 1552 1552 1553 1553 1554 1555 1556 1557 1558 1559 1560 1561 1561 1561 1562 1562 1563 1563 1564 1565 1566 1567 1568 1569 1570 1571 1572 1572 1572 1573 1573 1573 1573 1573 1573 1573 1573 1574 1574 1574 1574 1573 1573 1572 1572 1572 1572 1572 1572 1572 1572 1572 1572 1572 1572 1572 1572 1572 1572
1519 1520 1522 1523 1524 1525 1526 1528 1529 1531 1532 1534 1535 1537 1538 1540 1541 1543 1544 1545 1546 1547 1547 1549 1550 1551 1551 1552 1553 1553 1554 1554 1555 1557 1558 1559 1560 1561 1561 1561 1562 1562 1563 1563 1564 1566 1567 1567 1568 1569 1570 1571 1572 1573 1573 1574 1574 1574 1574 1574 1574 1575 1576 1576 1575 1575 1575 1574 1573 1573 1573 1573 1573 1572 1572 1573 1573 1573 1573 1573 1572 1572 1572 1573 1572
1518 1520 1521 1522 1523 1524 1525 1527 1529 1530 1531 1533 1535 1536 1538 1540 1541 1543 1544 1545 1546 1546 1547 1548 1549 1550 1551 1552 1552 1553 1553 1554 1555 1557 1558 1559 1560 1561 1561 1561 1562 1562 1563 1564 1565 1566 1567 1568 1569 1570 1571 1572 1573 1574 1574 1575 1575 1575 1575 1575 1576 1577 1577 1577 1577 1577 1577 1575 1574 1574 1574 1573 1573 1573 1573 1573 1573 1574 1574 1574 1574 1574 1574 1574 1574
1517 1518 1520 1521 1522 1523 1525 1526 1528 1530 1531 1533 1535 1536 1538 1540 1541 1543 1544 1545 1545 1546 1546 1547 1548 1549 1550 1551 1552 1553 1553 1553 1555 1557 1558 1559 1560 1560 1561 1561 1562 1562 1563 1564 1565 1566 1568 1569 1569 1570 1571 1572 1573 1574 1575 1576 1576 1576 1576 1576 1577 1578 1578 1579 1579 1579 1578 1576 1575 1574 1574 1574 1574 1574 1574 1574 1574 1574 1574 1574 1575 1575 1575 1575 1575
1516 1517 1518 1520 1521 1522 1524 1526 1527 1529 1531 1532 1534 1536 1538 1540 1541 1542 1543 1544 1544 1545 1545 1545 1547 1548 1549 1550 1551 1553 1553 1553 1555 1557 1558 1559 1560 1561 1561 1562 1562 1563 1564 1565 1565 1566 1568 1569 1569 1570 1571 1573 1574 1575 1576 1576 1576 1577 1577 1577 1578 1578 1578 1580 1580 1579 1579 1577 1575 1575 1575 1575 1575 1575 1575 1575 1575 1575 1575 1575 1575 1575 1575 1575 1575
1516 1517 1517 1519 1520 1522 1523 1525 1527 1529 1530 1532 1534 1536 1538 1540 1540 1541 1542 1543 1543 1544 1543 1544 1547 1547 1549 1551 1551 1552 1553 1554 1556 1558 1559 1560 1560 1561 1562 1563 1563 1563 1564 1565 1566 1567 1568 1568 1569 1570 1571 1573 1574 1575 1576 1576 1577 1577 1577 1578 1578 1578 1579 1580 1579 1579 1579 1577 1576 1575 1575 1575 1575 1575 1575 1575 1576 1576 1576 1576 1576 1576 1576 1576 1576
1515 1516 1517 1518 1520 1521 1522 1524 1526 1527 1529 1531 1534 1536 1538 1539 1540 1541 1542 1542 1543 1543 1543 1544 1547 1549 1551 1551 1551 1552 1552 1554 1556 1558 1559 1560 1561 1562 1563 1563 1564 1564 1565 1566 1566 1567 1568 1568 1569 1570 1571 1573 1574 1575 1576 1576 1577 1578 1578 1578 1578 1578 1579 1579 1579 1578 1578 1577 1576 1576 1576 1576 1576 1576 1576 1576 1576 1576 1577 1577 1577 1577 1577 1577 1577
1515 1516 1516 1518 1519 1520 1521 1522 1524 1526 1528 1530 1533 1535 1537 1539 1540 1541 1542 1543 1543 1543 1543 1545 1547 1550 1552 1552 1552 1552 1552 1554 1556 1557 1559 1560 1561 1562 1563 1563 1564 1565 1565 1566 1566 1567 1568 1569 1569 1570 1572 1573 1574 1574 1575 1576 1577 1578 1578 1578 1578 1579 1579 1580 1579 1579 1579 1578 1578 1577 1577 1577 1576 1576 1576 1576 1576 1576 1577 1577 1577 1577 1577 1578 1578
1514 1515 1515 1516 1517 1518 1519 1520 1522 1525 1527 1530 1532 1534 1537 1538 1540 1541 1542 1543 1543 1544 1544 1545 1547 1550 1552 1552 1552 1552 1553 1555 1556 1557 1558 1560 1561 1562 1563 1563 1564 1565 1565 1566 1566 1567 1567 1569 1570 1571 1572 1573 1573 1574 1575 1576 1576 1577 1578 1578 1578 1579 1579 1579 1579 1579 1579 1579 1578 1578 1578 1577 1577 1577 1577 1577 1576 1577 1577 1577 1578 1578 1578 1578 1578
1514 1514 1515 1515 1516 1517 1518 1519 1522 1524 1527 1530 1532 1534 1537 1538 1540 1541 1542 1543 1544 1545 1545 1546 1547 1550 1551 1552 1552 1553 1554 1555 1556 1557 1559 1560 1561 1561 1562 1563 1564 1564 1565 1565 1566 1567 1567 1568 1570 1571 1571 1572 1573 1574 1575 1576 1576 1577 1578 1578 1578 1578 1579 1579 1579 1580 1579 1579 1579 1579 1578 1578 1577 1577 1577 1577 1577 1577 1577 1577 1578 1578 1578 1579 1579
1515 1515 1515 1514 1514 1516 1518 1520 1523 1526 1528 1531 1533 1535 1537 1538 1540 1542 1542 1543 1544 1545 1546 1547 1548 1550 1551 1551 1552 1553 1554 1555 1557 1558 1559 1559 1560 1561 1562 1563 1564 1564 1565 1565 1566 1567 1567 1568 1569 1571 1571 1572 1573 1573 1575 1576 1576 1578 1578 1578 1578 1578 1578 1579 1580 1580 1580 1579 1579 1579 1579 1578 1578 1578 1577 1577 1577 1577 1577 1578 1578 1578 1578 1579 1579
1515 1515 1515 1514 1514 1515 1519 1522 1524 1527 1530 1532 1534 1535 1537 1538 1540 1541 1542 1543 1544 1545 1546 1547 1549 1550 1550 1551 1552 1553 1555 1556 1557 1558 1559 1560 1560 1561 1562 1563 1564 1564 1565 1565 1566 1567 1567 1568 1569 1570 1571 1572 1573 1573 1574 1576 1577 1577 1578 1578 1578 1578 1578 1579 1580 1580 1580 1580 1579 1579 1579 1578 1578 1578 1578 1578 1578 1578 1577 1578 1578 1578 1578 1579 1579
1514 1515 1515 1515 1515 1517 1521 1524 1526 1527 1530 1532 1534 1535 1537 1538 1540 1541 1542 1543 1544 1545 1546 1547 1548 1549 1550 1551 1553 1554 1555 1556 1557 1558 1559 1560 1561 1561 1562 1563 1563 1564 1564 1565 1566 1567 1567 1568 1568 1569 1570 1571 1572 1573 1574 1575 1576 1577 1577 1578 1578 1578 1578 1579 1579 1580 1580 1580 1579 1579 1579 1579 1579 1578 1578 1578 1578 1578 1578 1578 1578 1578 1579 1579 1580
1516 1516 1515 1516 1517 1520 1523 1524 1525 1527 1529 1532 1533 1535 1537 1538 1539 1540 1541 1543 1544 1545 1546 1547 1548 1550 1551 1552 1553 1554 1555 1556 1557 1558 1559 1560 1561 1561 1562 1563 1563 1563 1564 1564 1566 1566 1567 1568 1568 1569 1569 1570 1571 1572 1573 1575 1576 1576 1577 1577 1578 1578 1578 1579 1579 1580 1580 1581 1580 1579 1579 1579 1579 1579 1579 1579 1578 1578 1578 1578 1578 1579 1579 1580 1580
1514 1517 1516 1517 1519 1520 1522 1523 1524 1526 1529 1531 1533 1535 1536 1538 1539 1540 1542 1543 1544 1545 1546 1547 1549 1550 1551 1552 1553 1554 1555 1556 1557 1558 1559 1560 1561 1561 1562 1562 1563 1563 1563 1564 1565 1566 1567 1567 1568 1568 1569 1570 1571 1572 1573 1574 1575 1575 1575 1576 1577 1577 1577 1578 1579 1579 1580 1580 1580 1579 1579 1580 1580 1580 1579 1579 1579 1579 1578 1579 1579 1579 1580 1581 1581
1506 1513 1516 1517 1519 1520 1521 1523 1525 1526 1528 1531 1533 1535 1536 1537 1539 1540 1541 1543 1544 1545 1546 1548 1549 1550 1551 1552 1553 1554 1555 1556 1557 1558 1559 1560 1561 1561 1562 1562 1562 1563 1563 1564 1565 1566 1567 1567 1568 1568 1568 1569 1571 1572 1573 1573 1573 1574 1574 1575 1575 1575 1576 1577 1577 1578 1579 1578 1579 1579 1579 1580 1580 1580 1580 1579 1579 1579 1579 1579 1580 1580 1581 1581 1582
1500 1505 1513 1518 1520 1521 1522 1522 1524 1526 1528 1530 1532 1534 1535 1537 1538 1540 1541 1542 1544 1545 1546 1548 1549 1550 1551 1552 1553 1554 1555 1556 1557 1558 1559 1560 1561 1561 1562 1562 1562 1563 1564 1565 1565 1566 1566 1567 1567 1568 1568 1569 1570 1571 1572 1572 1572 1573 1574 1574 1574 1574 1574 1574 1575 1576 1577 1578 1578 1578 1578 1579 1579 1579 1579 1579 1580 1580 1580 1580 1580 1581 1581 1582 1582
1501 1501 1508 1517 1520 1521 1522 1522 1524 1525 1527 1529 1531 1533 1535 1536 1538 1539 1541 1542 1543 1544 1546 1548 1549 1550 1551 1552 1553 1554 1555 1556 1557 1557 1558 1559 1560 1561 1561 1562 1563 1563 1564 1565 1565 1565 1566 1566 1567 1567 1568 1568 1569 1570 1571 1571 1572 1573 1573 1574 1574 1573 1573 1574 1575 1576 1576 1577 1577 1577 1577 1578 1578 1578 1578 1579 1579 1580 1580 1580 1581 1581 1581 1582 1582
1504 1503 1504 1510 1517 1520 1521 1522 1523 1524 1526 1527 1530 1532 1534 1536 1537 1539 1541 1542 1543 1544 1546 1548 1549 1550 1551 1552 1553 1554 1554 1555 1556 1557 1558 1559 1559 1560 1561 1562 1562 1563 1564 1564 1565 1565 1565 1566 1566 1567 1567 1568 1569 1570 1571 1571 1572 1572 1573 1574 1574 1574 1574 1574 1575 1576 1576 1577 1577 1577 1577 1577 1577 1578 1578 1580 1579 1580 1581 1581 1581 1582 1582 1582 1582
1506 1507 1505 1507 1513 1517 1519 1520 1522 1523 1524 1526 1529 1532 1533 1534 1536 1538 1540 1541 1543 1544 1546 1548 1549 1550 1551 1552 1552 1553 1554 1555 1556 1557 1557 1558 1558 1559 1560 1561 1562 1562 1563 1564 1564 1565 1565 1565 1566 1567 1567 1568 1569 1570 1570 1571 1571 1572 1573 1574 1574 1575 1575 1575 1575 1576 1577 1576 1576 1576 1576 1577 1577 1578 1579 1580 1580 1580 1580 1581 1582 1583 1583 1583 1583
1505 1507 1507 1508 1511 1513 1516 1518 1519 1521 1523 1525 1527 1530 1532 1533 1535 1537 1540 1541 1542 1543 1545 1547 1549 1550 1551 1551 1552 1553 1554 1555 1555 1556 1557 1557 1558 1559 1560 1560 1561 1562 1563 1564 1564 1564 1565 1565 1566 1566 1567 1568 1569 1569 1570 1571 1571 1572 1573 1574 1574 1574 1574 1574 1575 1576 1576 1576 1576 1576 1576 1576 1577 1578 1579 1580 1581 1581 1581 1581 1582 1583 1583 1583 1583
1504 1505 1506 1508 1509 1510 1512 1514 1517 1519 1521 1523 1526 1528 1530 1532 1534 1536 1539 1540 1542 1543 1545 1547 1548 1549 1550 1550 1551 1552 1553 1554 1555 1556 1556 1556 1557 1558 1559 1560 1561 1562 1563 1564 1564 1564 1564 1565 1566 1566 1567 1568 1568 1569 1570 1571 1571 1572 1573 1573 1574 1574 1574 1575 1575 1576 1576 1576 1576 1576 1576 1576 1577 1578 1578 1579 1580 1581 1581 1581 1582 1583 1583 1583 1583
1502 1503 1504 1506 1507 1509 1510 1513 1515 1518 1520 1522 1524 1527 1529 1531 1533 1535 1537 1539 1541 1542 1544 1546 1547 1548 1549 1550 1551 1552 1553 1554 1555 1555 1556 1556 1557 1558 1558 1559 1560 1562 1563 1563 1564 1564 1564 1565 1566 1566 1567 1567 1568 1569 1570 1571 1571 1571 1572 1574 1574 1574 1574 1574 1575 1575 1576 1576 1576 1576 1576 1576 1576 1576 1577 1579 1580 1581 1581 1582 1583 1583 1584 1584 1584
1502 1503 1504 1505 1507 1509 1510 1512 1514 1516 1519 1521 1523 1526 1529 1531 1533 1535 1537 1539 1540 1541 1543 1545 1546 1547 1548 1549 1550 1551 1552 1553 1554 1555 1556 1556 1556 1557 1558 1558 1560 1561 1562 1563 1564 1564 1564 1565 1565 1566 1566 1567 1568 1569 1570 1571 1572 1572 1573 1573 1574 1574 1574 1574 1575 1575 1575 1576 1576 1576 1576 1576 1576 1576 1577 1578 1580 1581 1581 1582 1583 1583 1584 1584 1585
1501 1502 1504 1505 1507 1509 1510 1512 1514 1516 1518 1520 1523 1526 1528 1530 1532 1534 1536 1538 1539 1540 1542 1544 1545 1547 1548 1549 1550 1551 1552 1553 1554 1555 1555 1556 1556 1556 1557 1557 1559 1560 1561 1563 1563 1563 1564 1564 1565 1565 1566 1567 1568 1569 1569 1570 1571 1572 1572 1572 1573 1574 1574 1574 1574 1574 1575 1576 1576 1576 1576 1577 1577 1577 1578 1579 1579 1580 1581 1582 1583 1583 1584 1585 1585
1500 1501 1503 1505 1506 1508 1510 1512 1514 1516 1518 1520 1522 1524 1526 1529 1531 1533 1535 1536 1538 1540 1541 1543 1545 1546 1547 1548 1549 1550 1551 1553 1554 1554 1555 1555 1556 1556 1556 1557 1558 1559 1560 1561 1562 1562 1563 1563 1564 1565 1566 1567 1567 1568 1568 1569 1570 1571 1571 1571 1572 1573 1573 1573 1574 1574 1575 1576 1576 1577 1577 1577 1578 1578 1578 1579 1579 1580 1581 1582 1583 1584 1585 1585 1586
1499 1500 1502 1504 1506 1507 1510 1512 1514 1516 1517 1519 1521 1523 1525 1528 1530 1531 1533 1535 1537 1539 1541 1542 1544 1545 1547 1548 1549 1550 1551 1552 1553 1554 1554 1555 1555 1555 1556 1557 1557 1558 1559 1560 1561 1562 1562 1563 1563 1564 1565 1566 1567 1568 1568 1569 1570 1570 1570 1570 1571 1572 1572 1572 1573 1574 1575 1576 1576 1577 1577 1577 1578 1579 1579 1579 1580 1581 1581 1582 1583 1584 1585 1586 1587
1499 1500 1501 1504 1505 1507 1510 1512 1514 1515 1516 1518 1520 1522 1525 1527 1529 1531 1533 1535 1537 1539 1540 1542 1543 1545 1546 1547 1548 1550 1551 1552 1553 1554 1554 1554 1555 1555 1556 1556 1557 1558 1558 1559 1560 1561 1562 1562 1563 1564 1565 1566 1567 1568 1568 1568 1569 1569 1569 1570 1570 1570 1571 1571 1571 1572 1574 1575 1576 1576 1577 1578 1578 1579 1579 1579 1580 1581 1582 1583 1584 1584 1585 1586 1587
1498 1499 1501 1503 1504 1507 1509 1511 1513 1514 1515 1516 1518 1520 1523 1525 1528 1531 1533 1535 1537 1538 1540 1542 1543 1544 1545 1547 1548 1549 1550 1551 1552 1553 1553 1553 1554 1555 1555 1556 1556 1557 1558 1559 1560 1560 1561 1562 1562 1563 1564 1565 1566 1567 1568 1568 1569 1569 1568 1569 1570 1570 1570 1570 1570 1571 1572 1574 1575 1576 1578 1578 1579 1579 1580 1580 1581 1582 1583 1584 1585 1585 1586 1587 1587
1496 1498 1500 1502 1504 1505 1507 1509 1511 1512 1513 1515 1517 1519 1522 1524 1527 1530 1532 1534 1536 1538 1539 1541 1543 1544 1545 1547 1548 1549 1550 1550 1551 1552 1552 1553 1553 1554 1555 1555 1556 1556 1557 1558 1559 1560 1560 1561 1561 1562 1563 1564 1565 1566 1567 1567 1568 1568 1568 1568 1569 1569 1569 1570 1570 1570 1571 1573 1574 1576 1577 1578 1579 1580 1580 1581 1582 1582 1583 1584 1585 1586 1586 1587 1588
1494 1497 1499 1501 1503 1503 1505 1507 1509 1510 1512 1514 1517 1519 1521 1524 1527 1529 1531 1533 1535 1537 1539 1540 1542 1544 1545 1546 1547 1549 1549 1550 1550 1551 1552 1552 1552 1554 1555 1555 1555 1556 1557 1557 1558 1559 1560 1560 1561 1561 1562 1563 1564 1565 1565 1566 1567 1567 1567 1568 1568 1569 1569 1569 1569 1570 1571 1572 1574 1575 1577 1578 1579 1580 1581 1582 1582 1583 1584 1585 1586 1586 1587 1587 1588
1493 1495 1497 1499 1502 1502 1503 1505 1506 1508 1510 1512 1516 1519 1521 1524 1527 1530 1532 1533 1535 1536 1538 1539 1541 1543 1544 1546 1547 1548 1549 1549 1550 1550 1551 1552 1552 1553 1554 1555 1555 1556 1556 1557 1558 1558 1559 1559 1560 1560 1561 1562 1563 1564 1565 1565 1566 1566 1567 1567 1567 1568 1568 1568 1569 1571 1571 1572 1573 1575 1577 1578 1580 1581 1582 1583 1584 1584 1585 1585 1586 1586 1587 1588 1588